TimeEDT,TemperatureF,Dew PointF,Humidity,Sea Level PressureIn,VisibilityMPH,Wind Direction,Wind SpeedMPH,Gust SpeedMPH,PrecipitationIn,Events,Conditions,WindDirDegrees,DateUTC
12:53 AM,57.0,55.0,93,30.17,9.0,Calm,Calm,-,N/A,,Clear,0,2012-10-24 04:53:00
1:53 AM,55.9,55.0,97,30.16,7.0,Calm,Calm,-,N/A,,Clear,0,2012-10-24 05:53:00
2:53 AM,55.0,54.0,96,30.15,7.0,Calm,Calm,-,N/A,,Clear,0,2012-10-24 06:53:00
3:53 AM,54.0,53.1,97,30.14,7.0,Calm,Calm,-,N/A,,Clear,0,2012-10-24 07:53:00
4:53 AM,55.0,54.0,96,30.14,7.0,Calm,Calm,-,N/A,,Clear,0,2012-10-24 08:53:00
5:04 AM,53.6,53.6,100,30.14,5.0,Calm,Calm,-,N/A,,Partly Cloudy,0,2012-10-24 09:04:00
5:53 AM,54.0,53.1,97,30.16,5.0,Calm,Calm,-,N/A,,Clear,0,2012-10-24 09:53:00
6:49 AM,53.6,51.8,94,30.16,1.8,Calm,Calm,-,N/A,,Clear,0,2012-10-24 10:49:00
6:53 AM,53.1,52.0,96,30.17,1.5,Calm,Calm,-,N/A,,Clear,0,2012-10-24 10:53:00
7:08 AM,53.6,51.8,94,30.17,2.0,Calm,Calm,-,N/A,,Clear,0,2012-10-24 11:08:00
7:22 AM,53.6,51.8,94,30.17,3.0,Calm,Calm,-,N/A,,Clear,0,2012-10-24 11:22:00
7:25 AM,53.6,51.8,94,30.17,1.8,Calm,Calm,-,N/A,,Clear,0,2012-10-24 11:25:00
7:37 AM,53.6,53.6,100,30.17,0.2,Calm,Calm,-,N/A,Fog,Fog,0,2012-10-24 11:37:00
7:53 AM,54.0,54.0,100,30.18,0.5,North,3.5,-,N/A,Fog,Fog,10,2012-10-24 11:53:00
8:00 AM,55.4,53.6,94,30.18,0.2,NE,3.5,-,N/A,Fog,Fog,40,2012-10-24 12:00:00
8:38 AM,57.2,55.4,94,30.19,0.5,NNE,4.6,-,N/A,Fog,Fog,20,2012-10-24 12:38:00
8:45 AM,57.2,55.4,94,30.19,0.2,NNE,3.5,-,N/A,Fog,Fog,20,2012-10-24 12:45:00
8:53 AM,57.0,57.0,100,30.20,0.2,NNE,3.5,-,N/A,Fog,Fog,30,2012-10-24 12:53:00
9:04 AM,57.2,57.2,100,30.19,0.5,NNE,3.5,-,N/A,Fog,Fog,20,2012-10-24 13:04:00
9:33 AM,60.8,60.8,100,30.20,3.0,NNE,4.6,-,N/A,,Overcast,20,2012-10-24 13:33:00
9:53 AM,62.1,61.0,96,30.20,10.0,NNE,6.9,-,N/A,,Scattered Clouds,30,2012-10-24 13:53:00
10:53 AM,72.0,63.0,73,30.19,10.0,North,4.6,-,N/A,,Clear,10,2012-10-24 14:53:00
12:53 PM,77.0,60.1,56,30.16,10.0,Calm,Calm,-,N/A,,Partly Cloudy,0,2012-10-24 16:53:00
1:53 PM,78.1,63.0,60,30.13,10.0,Variable,5.8,-,N/A,,Clear,0,2012-10-24 17:53:00
2:53 PM,78.1,61.0,56,30.11,10.0,SSE,5.8,-,N/A,,Clear,160,2012-10-24 18:53:00
3:53 PM,77.0,61.0,58,30.11,10.0,SSE,8.1,-,N/A,,Clear,160,2012-10-24 19:53:00
4:53 PM,75.9,60.1,58,30.11,10.0,SSE,6.9,-,N/A,,Clear,150,2012-10-24 20:53:00
5:53 PM,73.9,64.0,71,30.11,10.0,SSE,4.6,-,N/A,,Clear,160,2012-10-24 21:53:00
6:53 PM,72.0,66.0,81,30.12,10.0,SSE,3.5,-,N/A,,Clear,150,2012-10-24 22:53:00
7:53 PM,64.9,63.0,93,30.13,9.0,Calm,Calm,-,N/A,,Clear,0,2012-10-24 23:53:00
8:53 PM,64.0,63.0,96,30.14,5.0,Calm,Calm,-,N/A,,Clear,0,2012-10-25 00:53:00
9:53 PM,63.0,62.1,97,30.14,1.8,Calm,Calm,-,N/A,,Clear,0,2012-10-25 01:53:00
10:28 PM,62.6,62.6,100,30.14,0.5,Calm,Calm,-,N/A,Fog,Fog,0,2012-10-25 02:28:00
10:35 PM,62.6,60.8,94,30.14,0.2,Calm,Calm,-,N/A,Fog,Fog,0,2012-10-25 02:35:00
10:53 PM,62.1,61.0,96,30.14,1.0,Calm,Calm,-,N/A,,Clear,0,2012-10-25 02:53:00
10:58 PM,62.6,62.6,100,30.14,4.0,Calm,Calm,-,N/A,,Clear,0,2012-10-25 02:58:00
11:22 PM,60.8,60.8,100,30.13,0.5,Calm,Calm,-,N/A,Fog,Fog,0,2012-10-25 03:22:00
11:31 PM,60.8,60.8,100,30.13,2.0,Calm,Calm,-,N/A,,Clear,0,2012-10-25 03:31:00
11:36 PM,60.8,60.8,100,30.13,0.8,Calm,Calm,-,N/A,,Clear,0,2012-10-25 03:36:00
11:40 PM,62.6,60.8,94,30.13,0.2,Calm,Calm,-,N/A,Fog,Fog,0,2012-10-25 03:40:00
11:57 PM,60.8,60.8,100,30.13,1.0,Calm,Calm,-,N/A,,Mist,0,2012-10-25 03:57:00